When you browse on this site, cookies collect data to enhance your experience and personalize the content and advertising you see.
Visit our Privacy Policy to learn more. By continuing to use the site, you agree to this use of cookies and data.
  • In United Kingdom
  • List of Countries
  • For 7 days
  • Water Temperature
  • Weather Map
  • Weather Widgets
  • user-avatar
    Login

    Hourly Weather Newcastle

    Today, 7 December, Saturday

    Time Temperature Precipitation Wind Pressure Humidity
    00:00 +19°C° 0 mm 3 mps 757 mmHg 86%
    01:00 +18°C° 0 mm 4 mps 757 mmHg 95%
    02:00 +19°C° 0 mm 3 mps 757 mmHg 93%
    03:00 +19°C° 0 mm 3 mps 757 mmHg 92%
    04:00 +19°C° 0 mm 2 mps 757 mmHg 92%
    05:00 +20°C° 0.1 mm 2 mps 758 mmHg 86%
    06:00 +21°C° 0.1 mm 2 mps 758 mmHg 80%
    07:00 +23°C° 0.1 mm 1 mps 759 mmHg 74%
    08:00 +26°C° 0 mm 1 mps 759 mmHg 63%
    09:00 +28°C° 0 mm 1 mps 759 mmHg 51%
    10:00 +30°C° 0 mm 1 mps 758 mmHg 40%
    11:00 +30°C° 0 mm 2 mps 758 mmHg 39%
    12:00 +31°C° 0 mm 3 mps 758 mmHg 39%
    13:00 +32°C° 0 mm 4 mps 757 mmHg 38%
    14:00 +30°C° 0 mm 5 mps 757 mmHg 42%
    15:00 +28°C° 0 mm 5 mps 756 mmHg 47%
    16:00 +27°C° 0 mm 5 mps 756 mmHg 52%
    17:00 +25°C° 0 mm 5 mps 757 mmHg 60%
    18:00 +23°C° 0 mm 4 mps 758 mmHg 68%
    19:00 +21°C° 0 mm 3 mps 759 mmHg 75%
    20:00 +20°C° 0 mm 3 mps 760 mmHg 80%
    21:00 +20°C° 0 mm 3 mps 761 mmHg 85%
    22:00 +19°C° 0 mm 3 mps 762 mmHg 90%
    23:00 +19°C° 0 mm 3 mps 762 mmHg 91%

    Tomorrow, 8 December, Sunday

    Time Temperature Precipitation Wind Pressure Humidity
    00:00 +19°C° 0 mm 3 mps 762 mmHg 92%
    01:00 +19°C° 0 mm 3 mps 762 mmHg 93%
    02:00 +19°C° 0.1 mm 3 mps 762 mmHg 93%
    03:00 +18°C° 0.1 mm 3 mps 762 mmHg 92%
    04:00 +18°C° 0.1 mm 3 mps 762 mmHg 91%
    05:00 +19°C° 0 mm 3 mps 763 mmHg 85%
    06:00 +20°C° 0 mm 4 mps 763 mmHg 79%
    07:00 +21°C° 0 mm 4 mps 763 mmHg 73%
    08:00 +23°C° 0 mm 4 mps 763 mmHg 66%
    09:00 +25°C° 0 mm 5 mps 763 mmHg 59%
    10:00 +26°C° 0 mm 5 mps 763 mmHg 53%
    11:00 +27°C° 0 mm 5 mps 763 mmHg 52%
    12:00 +27°C° 0 mm 5 mps 763 mmHg 51%
    13:00 +28°C° 0 mm 6 mps 762 mmHg 49%
    14:00 +27°C° 0 mm 6 mps 762 mmHg 52%
    15:00 +27°C° 0 mm 6 mps 762 mmHg 54%
    16:00 +26°C° 0 mm 7 mps 762 mmHg 56%
    17:00 +24°C° 0 mm 6 mps 763 mmHg 61%
    18:00 +22°C° 0 mm 6 mps 764 mmHg 67%
    19:00 +21°C° 0 mm 6 mps 764 mmHg 72%
    20:00 +20°C° 0 mm 6 mps 765 mmHg 75%
    21:00 +20°C° 0 mm 5 mps 765 mmHg 79%
    22:00 +19°C° 0 mm 5 mps 766 mmHg 82%
    23:00 +19°C° 0 mm 5 mps 765 mmHg 84%

    Day after tomorrow, 9 December, Monday

    Time Temperature Precipitation Wind Pressure Humidity
    00:00 +18°C° 0 mm 4 mps 765 mmHg 86%
    01:00 +18°C° 0 mm 4 mps 765 mmHg 88%
    02:00 +18°C° 0 mm 4 mps 765 mmHg 89%
    03:00 +18°C° 0 mm 4 mps 765 mmHg 91%
    04:00 +18°C° 0 mm 4 mps 765 mmHg 93%
    05:00 +19°C° 0 mm 4 mps 765 mmHg 85%
    06:00 +21°C° 0 mm 4 mps 765 mmHg 78%
    07:00 +23°C° 0 mm 4 mps 765 mmHg 70%
    08:00 +26°C° 0 mm 5 mps 765 mmHg 62%
    09:00 +28°C° 0 mm 5 mps 765 mmHg 55%
    10:00 +30°C° 0 mm 5 mps 765 mmHg 47%
    11:00 +32°C° 0 mm 6 mps 764 mmHg 43%
    12:00 +34°C° 0 mm 7 mps 763 mmHg 39%
    13:00 +35°C° 0 mm 7 mps 762 mmHg 36%
    14:00 +34°C° 0 mm 8 mps 762 mmHg 39%
    15:00 +33°C° 0 mm 8 mps 761 mmHg 43%
    16:00 +32°C° 0 mm 8 mps 761 mmHg 47%
    17:00 +29°C° 0 mm 8 mps 761 mmHg 55%
    18:00 +27°C° 0 mm 8 mps 761 mmHg 63%
    19:00 +23°C° 0 mm 8 mps 761 mmHg 70%
    20:00 +22°C° 0 mm 7 mps 761 mmHg 74%
    21:00 +22°C° 0 mm 6 mps 762 mmHg 78%
    22:00 +21°C° 0 mm 5 mps 762 mmHg 81%
    23:00 +20°C° 0 mm 4 mps 761 mmHg 85%

    10 December, Tuesday

    Time Temperature Precipitation Wind Pressure Humidity
    00:00 +19°C° 0 mm 4 mps 761 mmHg 89%
    01:00 +18°C° 0 mm 3 mps 760 mmHg 93%
    02:00 +18°C° 0 mm 3 mps 760 mmHg 94%
    03:00 +18°C° 0 mm 2 mps 760 mmHg 95%
    04:00 +18°C° 0 mm 2 mps 759 mmHg 96%
    05:00 +20°C° 0 mm 2 mps 759 mmHg 85%
    06:00 +23°C° 0 mm 2 mps 760 mmHg 75%
    07:00 +26°C° 0 mm 2 mps 760 mmHg 64%
    08:00 +29°C° 0 mm 3 mps 760 mmHg 53%
    09:00 +34°C° 0 mm 3 mps 759 mmHg 41%
    10:00 +38°C° 0 mm 4 mps 759 mmHg 29%
    11:00 +40°C° 0 mm 4 mps 759 mmHg 26%
    12:00 +41°C° 0 mm 5 mps 758 mmHg 24%
    13:00 +43°C° 0 mm 5 mps 757 mmHg 21%
    14:00 +41°C° 0 mm 6 mps 756 mmHg 25%
    15:00 +40°C° 0 mm 6 mps 756 mmHg 28%
    16:00 +39°C° 0 mm 7 mps 756 mmHg 32%
    17:00 +36°C° 0 mm 6 mps 756 mmHg 37%
    18:00 +34°C° 0 mm 6 mps 756 mmHg 42%
    19:00 +32°C° 0 mm 5 mps 756 mmHg 47%
    20:00 +30°C° 0 mm 4 mps 757 mmHg 51%
    21:00 +29°C° 0 mm 4 mps 758 mmHg 55%
    22:00 +28°C° 0 mm 3 mps 758 mmHg 60%
    23:00 +26°C° 0 mm 4 mps 758 mmHg 70%

    11 December, Wednesday

    Time Temperature Precipitation Wind Pressure Humidity
    00:00 +25°C° 0 mm 5 mps 758 mmHg 80%
    01:00 +22°C° 0 mm 6 mps 758 mmHg 90%
    02:00 +21°C° 0 mm 6 mps 758 mmHg 87%
    03:00 +21°C° 0 mm 6 mps 758 mmHg 85%
    04:00 +21°C° 0 mm 5 mps 758 mmHg 82%
    05:00 +22°C° 0 mm 4 mps 758 mmHg 80%
    06:00 +22°C° 0 mm 3 mps 758 mmHg 77%
    07:00 +22°C° 0 mm 3 mps 758 mmHg 75%
    08:00 +26°C° 0 mm 3 mps 758 mmHg 67%
    09:00 +28°C° 0 mm 3 mps 758 mmHg 60%
    10:00 +30°C° 0 mm 3 mps 758 mmHg 52%
    11:00 +30°C° 0 mm 3 mps 757 mmHg 54%
    12:00 +30°C° 0 mm 4 mps 757 mmHg 56%
    13:00 +29°C° 0 mm 4 mps 756 mmHg 57%
    14:00 +28°C° 0.6 mm 3 mps 756 mmHg 67%
    15:00 +26°C° 0.6 mm 3 mps 756 mmHg 77%
    16:00 +24°C° 0.6 mm 2 mps 756 mmHg 87%
    17:00 +24°C° 0.8 mm 3 mps 756 mmHg 89%
    18:00 +22°C° 0.8 mm 4 mps 757 mmHg 92%
    19:00 +21°C° 0.8 mm 5 mps 757 mmHg 94%
    20:00 +21°C° 0 mm 5 mps 757 mmHg 92%
    21:00 +22°C° 0 mm 5 mps 757 mmHg 90%
    22:00 +22°C° 0 mm 5 mps 757 mmHg 87%
    23:00 +21°C° 0 mm 4 mps 757 mmHg 90%

    12 December, Thursday

    Time Temperature Precipitation Wind Pressure Humidity
    00:00 +21°C° 0 mm 3 mps 756 mmHg 94%
    01:00 +20°C° 0 mm 2 mps 756 mmHg 97%
    02:00 +20°C° 0 mm 2 mps 756 mmHg 97%
    03:00 +20°C° 0 mm 2 mps 756 mmHg 97%
    04:00 +20°C° 0 mm 2 mps 756 mmHg 97%
    05:00 +21°C° 0 mm 2 mps 756 mmHg 92%
    06:00 +23°C° 0 mm 2 mps 756 mmHg 86%
    07:00 +24°C° 0 mm 2 mps 756 mmHg 81%
    08:00 +26°C° 0 mm 2 mps 756 mmHg 72%
    09:00 +29°C° 0 mm 2 mps 756 mmHg 62%
    10:00 +31°C° 0 mm 2 mps 756 mmHg 52%
    11:00 +31°C° 0 mm 3 mps 755 mmHg 51%
    12:00 +33°C° 0 mm 4 mps 754 mmHg 50%
    13:00 +33°C° 0 mm 4 mps 754 mmHg 48%
    14:00 +30°C° 2 mm 4 mps 753 mmHg 62%
    15:00 +27°C° 2 mm 5 mps 753 mmHg 75%
    16:00 +25°C° 2 mm 5 mps 753 mmHg 88%
    17:00 +23°C° 1.1 mm 5 mps 753 mmHg 87%
    18:00 +22°C° 1.1 mm 4 mps 754 mmHg 87%
    19:00 +21°C° 1.1 mm 4 mps 755 mmHg 86%
    20:00 +21°C° 0.1 mm 4 mps 755 mmHg 89%
    21:00 +20°C° 0.1 mm 4 mps 754 mmHg 92%
    22:00 +20°C° 0.1 mm 4 mps 754 mmHg 95%
    23:00 +20°C° 0 mm 4 mps 754 mmHg 96%
    Show more